SCP
0 0 0 0 0 0 0 0 0 0 0 0 0 0 0 0 0 0 0 0 0 0 1 1 1 0 0 1 1 1 1 1 1 0 0 0 1 1
0 0 0 0 0 0 0 0 0 0 0 0 0 0 0 0 0 0 0 0 0 0 0 0 0 0 0 0 1 1 0 0 0 0 0 0 0 1
0 0 0 0 0 0 0 0 0 0 0 0 0 0 0 0 0 0 0 0 0 0 0 0 0 0 0 0 0 0 0 0 0 0 0 0 0 0
0 0 0 0 0 0 0 0 0 0 0 0 0 0 0 0 0 0 0 0 0 0 0 0 0 0 0 0 0 0 0 0 0 0 0 0 0 0
0 0 0 0 0 0 0 0 0 0 0 0 0 0 0 0 0 0 0 0 0 0 0 0 0 0 0 0 0 0 0 0 0 0 0 0 0 0
0 0 0 0 0 0 0 0 0 0 0 0 0 0 0 0 0 0 0 0 0 0 0 0 0 0 0 0 0 0 0 0 0 0 0 0 0 0
0 0 0 0 0 0 0 0 0 0 0 0 0 0 0 0 0 0 0 0 0 0 0 0 0 0 0 0 0 0 0 0 0 0 0 0 0 0
0 0 0 0 0 0 0 0 0 0 0 0 0 0 0 0 0 0 0 0 0 0 0 0 0 0 0 0 0 0 0 0 0 0 0 0 0 0
0 0 0 0 0 0 0 0 0 0 0 0 0 0 0 0 0 0 0 0 0 0 0 0 0 0 0 0 0 0 0 0 0 0 0 0 0 0
0 0 0 0 0 0 0 0 0 0 0 0 0 0 0 0 0 0 0 0 0 0 0 0 0 0 0 0 0 0 0 0 0 0 0 0 0 0
0 0 0 0 0 0 0 0 0 0 0 0 0 0 0 0 0 0 0 0 0 0 0 0 0 0 0 0 0 0 0 0 0 0 0 0 0 0
0 0 0 0 0 0 0 0 0 0 0 0 0 0 0 0 0 0 0 0 0 0 0 0 0 0 0 0 0 0 0 0 0 0 0 0 0 0
0 0 0 0 0 0 0 0 0 0 0 0 0 0 0 0 0 0 0 0 0 0 0 0 0 0 0 0 0 0 0 0 0 0 0 0 0 0
0 0 0 0 0 0 0 0 0 0 0 0 0 0 0 0 0 0 0 0 0 0 0 0 0 0 0 0 0 0 0 0 0 0 0 0 0 0
0 0 0 0 0 0 0 0 0 0 0 0 0 0 0 0 0 0 0 0 0 0 0 0 0 0 0 0 0 0 0 0 0 0 0 0 0 0
0 0 0 0 0 0 0 0 0 0 0 0 0 0 0 0 0 0 0 0 0 0 0 0 0 0 0 0 0 0 0 0 0 0 0 0 0 0
0 0 0 0 0 0 0 0 0 0 0 0 0 0 0 0 0 0 0 0 0 0 0 0 0 0 0 0 0 0 0 0 0 0 0 0 0 0
0 0 0 0 0 0 0 0 0 0 0 0 0 0 0 0 0 0 0 0 0 0 0 0 0 0 0 0 0 0 0 0 0 0 0 0 0 0
0 0 0 0 0 0 0 0 0 0 0 0 0 0 0 0 0 0 0 0 0 0 0 0 0 0 0 0 0 0 0 0 0 0 0 0 0 0
0 0 0 0 0 0 0 0 0 0 0 0 0 0 0 0 0 0 0 0 0 0 0 0 0 0 0 0 0 0 0 0 0 0 0 0 0 0
0 0 0 0 0 0 0 0 0 0 0 0 0 0 0 0 0 0 0 0 0 0 0 0 0 0 0 0 0 0 0 0 0 0 0 0 0 0
0 0 0 0 0 0 0 0 0 0 0 0 0 0 0 0 0 0 0 0 0 0 0 0 0 0 0 0 0 0 0 0 0 0 0 0 0 0
0 0 0 0 0 0 0 0 0 0 0 0 0 0 0 0 0 0 0 0 0 0 0 0 0 0 0 0 0 0 0 0 0 0 0 0 0 0
Wind_Speed
3 4 3 3 3 3 3 2 2 2 2 2 2 2 2 2 2 2 2 4 5 5 6 6 7 8 9 9 10 10 9 10 10 10 10 10 10 11
3 4 3 3 3 3 3 3 3 2 1 2 2 2 3 4 4 3 2 4 4 4 4 4 5 5 7 8 9 9 9 9 10 10 10 10 11 11
3 4 3 4 3 3 3 3 3 3 2 2 2 2 4 3 3 2 1 1 1 2 2 1 2 3 4 6 7 8 8 9 10 10 10 11 11 12
3 3 3 3 4 3 3 3 3 2 2 2 2 3 3 3 3 3 3 3 1 1 1 2 1 1 1 3 4 5 7 8 9 9 10 11 11 11
4 4 4 4 4 3 4 3 3 3 2 1 2 2 2 3 3 4 5 3 3 2 2 3 2 2 2 3 3 4 5 6 7 8 9 11 11 12
4 4 4 5 4 4 4 4 3 3 3 2 2 2 2 3 3 3 4 4 4 4 4 4 4 4 4 3 3 3 4 5 6 7 8 10 11 12
4 4 5 6 7 5 4 3 3 3 2 2 2 2 3 3 3 3 4 4 4 3 3 3 3 2 3 4 4 4 3 4 5 7 9 9 11 12
3 3 4 5 6 7 7 6 5 3 2 2 2 2 3 3 3 4 3 4 4 4 3 4 3 3 3 2 3 4 5 6 6 7 9 10 11 13
3 2 3 4 4 3 4 4 4 5 3 1 2 2 2 3 3 4 4 4 4 4 3 4 3 3 4 4 6 7 8 8 9 9 10 11 12 13
3 3 3 3 3 3 2 3 2 2 2 1 1 2 2 3 3 3 4 4 4 3 3 4 4 4 5 4 8 9 9 9 9 10 11 12 12 13
2 3 3 3 5 6 3 2 2 3 3 3 4 4 5 7 5 3 4 3 4 4 3 3 4 5 4 4 5 8 8 9 11 12 13 12 12 12
1 2 4 4 5 5 2 2 3 3 3 4 4 5 4 5 6 3 2 2 3 4 3 3 4 4 5 4 3 4 5 8 10 11 12 12 12 7
1 1 1 3 3 3 3 1 3 4 3 3 3 3 3 2 3 3 2 1 2 4 4 3 4 4 4 5 5 4 4 4 5 6 8 11 12 8
1 1 1 1 0 2 2 3 6 5 2 2 3 3 3 3 3 3 3 3 3 5 5 3 3 4 5 6 6 4 4 4 4 4 5 8 10 11
1 1 0 1 1 2 3 4 4 2 2 2 3 3 3 3 3 3 4 4 5 5 5 4 4 4 4 6 6 6 6 5 4 4 5 5 5 5
1 1 2 2 1 2 3 2 2 1 2 2 3 3 3 3 3 3 3 4 4 5 5 5 4 5 5 6 6 7 6 5 5 5 6 5 5 5
1 1 1 0 1 1 1 1 1 1 2 2 2 3 3 3 3 3 3 3 4 5 5 4 4 4 6 6 6 7 7 6 6 6 6 7 6 6
1 1 1 1 1 1 2 2 1 2 2 2 2 2 3 3 4 4 3 3 5 5 5 5 5 5 5 5 5 7 7 7 6 6 6 7 8 6
1 1 1 1 1 1 2 2 2 2 2 2 2 3 3 3 4 4 4 4 5 5 6 5 5 5 8 10 6 6 7 8 7 6 6 7 9 8
1 1 2 2 2 2 2 2 2 2 2 2 3 3 3 3 4 4 4 5 6 6 6 5 4 5 7 9 9 8 9 8 7 8 7 7 7 10
2 2 2 2 2 2 1 1 2 2 3 3 3 3 3 3 4 4 5 8 7 6 7 6 6 10 7 6 8 7 7 9 11 9 8 8 8 8
2 2 1 1 1 1 1 1 2 2 3 2 2 3 3 3 4 6 6 6 6 6 7 6 6 6 5 7 10 10 10 9 10 14 14 12 9 9
2 1 1 1 1 1 1 2 3 2 2 2 2 3 3 4 4 5 6 6 6 7 7 7 6 6 6 7 9 9 12 11 8 8 8 12 16 18
Wind_Direction
35 41 40 25 25 23 28 52 75 39 7 17 17 17 34 57 56 42 51 52 49 47 44 38 34 29 24 21 18 15 13 10 5 360 355 354 353 348
52 49 38 30 26 25 22 25 50 74 34 354 8 6 22 31 39 34 34 29 53 55 46 40 37 31 24 22 18 13 10 7 3 0 356 354 351 347
49 56 41 39 33 27 20 22 34 58 66 344 357 8 26 16 6 356 353 22 45 54 41 22 22 24 21 16 10 6 2 1 358 354 352 349 345 343
48 54 50 48 35 28 25 23 23 34 74 17 343 357 5 358 358 348 353 4 347 18 352 346 320 308 353 355 354 353 352 353 351 348 346 342 339 337
54 50 47 50 39 25 29 24 12 18 34 45 348 355 355 358 2 347 352 346 336 342 334 325 307 310 300 321 327 334 340 343 345 345 342 340 337 333
66 65 58 53 45 27 31 19 18 17 16 30 9 353 350 349 10 350 342 339 336 340 342 327 308 300 295 297 309 317 328 334 334 333 333 332 330 328
78 80 77 73 63 53 44 23 20 20 15 21 6 359 355 357 348 335 338 325 322 335 335 324 322 312 301 293 292 296 307 321 326 326 326 326 324 324
90 96 96 81 68 55 48 41 28 28 19 15 7 359 341 343 336 338 332 334 321 322 333 315 327 323 309 297 288 294 302 310 314 314 317 319 319 319
57 69 63 65 64 51 28 18 11 17 26 37 21 343 334 334 338 331 322 315 296 298 326 309 320 317 309 315 313 306 307 308 306 305 308 311 312 312
54 56 72 61 45 47 30 15 360 358 356 10 347 308 322 318 315 308 299 304 298 313 335 310 314 309 311 306 307 310 307 304 305 306 307 308 306 305
67 51 63 67 37 36 34 4 347 333 341 341 322 312 321 329 332 341 336 335 317 309 331 318 309 308 299 293 304 304 301 302 304 303 304 305 304 302
91 75 68 72 46 35 34 360 337 323 339 335 323 321 321 325 330 322 309 318 314 309 322 324 313 321 309 292 300 304 298 296 297 300 304 304 303 300
98 94 81 82 61 26 6 340 321 324 324 322 318 318 317 314 309 301 299 293 294 291 302 315 307 310 294 298 300 297 296 298 300 299 302 302 301 300
97 103 115 84 43 330 322 321 331 337 331 328 324 319 317 309 305 310 310 302 285 281 289 300 298 301 302 301 300 303 304 297 295 297 299 304 300 295
134 130 271 289 287 293 299 317 329 331 319 309 302 298 298 299 312 321 316 308 302 302 310 308 299 296 294 295 297 302 306 301 294 301 301 296 291 293
254 259 273 275 282 295 305 301 292 294 294 282 292 296 309 320 320 316 313 313 311 304 300 301 301 300 295 291 293 297 299 297 305 300 300 297 294 289
209 243 256 274 287 291 293 283 277 297 297 293 297 306 313 314 310 311 310 314 309 305 309 307 302 296 287 288 291 290 294 295 293 296 300 295 288 286
177 204 232 239 243 258 273 288 292 287 286 288 292 299 301 305 307 311 312 309 303 300 301 303 308 310 307 291 269 289 292 290 291 290 292 295 292 287
161 223 241 249 256 260 262 267 277 281 287 293 292 291 295 302 308 311 312 309 304 300 300 303 308 311 310 307 293 282 289 293 293 290 284 285 289 290
201 226 245 257 259 260 263 272 283 297 300 299 297 297 299 304 309 309 307 306 305 304 303 303 302 298 294 296 297 294 284 287 292 292 290 286 281 283
225 235 248 257 263 263 268 276 282 284 290 293 296 302 304 307 308 306 303 304 303 300 300 298 291 299 295 296 297 294 289 287 287 291 294 296 296 295
224 233 245 254 265 276 281 283 285 284 287 289 295 299 303 305 301 301 302 302 298 295 298 298 302 307 305 301 299 299 300 298 295 295 291 285 290 293
217 219 232 253 264 287 295 295 297 294 295 298 302 302 305 302 297 295 297 298 300 301 305 305 305 303 299 295 297 299 302 305 304 302 293 294 291 287